Theta_e
341 341 341 339 338 333 332 334 336 336 336 336 336 336 337 338 338 338 338 338 338 337 336 335 334 334 332 332 332 331 330 328 327 325 322 320 323 327 328 327 327 327 327 328 331 332 332 333 333 332 332 332 330 328 328 327 327 326 327 327 328 329
341 341 340 338 336 333 334 337 337 336 336 335 335 335 336 337 338 339 339 338 337 337 335 334 333 330 326 326 327 327 326 325 324 323 322 322 322 324 327 328 327 327 327 329 331 332 332 333 333 333 332 331 329 328 328 326 326 326 327 328 329 330
340 340 339 337 334 334 336 337 337 337 336 336 335 334 335 337 337 337 337 337 336 335 334 332 331 327 323 324 325 324 324 324 323 323 322 323 322 322 325 328 328 328 328 329 331 332 332 332 333 333 332 331 329 328 327 326 326 326 327 328 330 330
339 340 339 336 334 336 338 337 338 337 336 335 334 333 334 336 335 335 334 334 334 333 332 331 329 325 324 326 325 323 323 323 323 323 323 323 323 322 324 328 329 328 328 329 330 331 331 332 332 332 332 330 328 328 327 326 325 325 327 329 330 330
339 339 337 334 335 338 338 338 338 336 335 333 332 332 333 334 333 332 332 332 332 331 331 331 328 324 324 325 323 323 323 323 323 324 324 324 323 323 324 327 328 328 328 329 330 330 331 332 332 332 331 329 328 327 326 326 325 326 328 329 330 329
339 339 336 333 336 338 338 337 337 335 332 330 330 331 332 332 331 331 330 330 330 329 329 328 326 324 325 324 323 323 324 325 325 326 327 326 325 325 326 327 328 328 329 330 330 330 330 332 332 332 331 330 328 327 326 326 326 328 329 330 330 329
339 338 334 332 335 337 337 336 335 333 330 329 329 331 331 330 330 330 329 329 328 328 327 326 325 324 324 323 322 324 327 328 329 329 329 328 327 327 328 328 329 329 329 330 330 329 330 332 332 332 331 330 328 327 327 326 327 329 330 331 330 329
339 337 334 333 335 336 336 335 333 331 329 328 329 331 331 330 329 329 329 328 329 330 329 326 324 323 323 322 322 326 328 329 330 330 330 329 329 328 329 329 329 329 328 329 330 330 330 331 332 331 330 329 328 327 326 327 328 330 331 330 330 329
339 336 333 333 333 333 334 333 332 330 328 327 329 331 331 329 328 329 329 329 331 332 331 327 325 324 322 323 325 328 329 329 329 329 329 329 329 329 329 329 329 328 328 329 330 330 329 331 331 331 330 329 327 326 326 327 329 330 330 330 329 329
338 336 332 332 332 332 333 332 331 329 327 326 329 330 330 329 328 329 330 330 331 332 332 330 328 325 324 325 326 328 329 329 329 329 329 328 328 328 329 329 329 327 327 329 330 330 330 330 331 330 330 328 327 326 326 328 329 329 330 329 329 329
337 336 334 333 332 332 331 330 330 328 326 326 329 330 330 329 328 330 331 331 331 331 332 332 331 328 327 328 328 328 329 330 330 329 328 328 328 328 328 328 328 327 327 328 329 330 330 330 331 331 329 328 327 326 326 328 329 329 328 328 328 329
336 336 335 334 331 331 331 330 329 328 326 326 328 329 329 328 328 330 331 332 332 332 332 332 332 331 330 330 330 329 329 330 330 329 328 328 328 328 327 327 327 327 327 328 329 330 330 330 331 330 329 327 325 325 327 328 328 328 328 328 328 329
334 334 334 332 330 330 330 329 329 327 326 326 328 329 328 328 329 331 331 332 333 333 333 333 332 331 331 331 331 330 330 331 330 329 328 328 328 327 327 327 327 327 327 328 329 329 329 330 330 330 328 325 324 327 329 329 329 329 329 328 329 329
333 330 330 329 328 330 330 330 329 327 326 327 328 329 329 327 329 331 332 333 333 333 332 332 332 331 331 332 331 331 330 331 330 329 328 328 328 328 326 327 328 327 327 328 328 329 329 329 330 329 326 323 326 329 329 329 329 329 329 329 329 329
332 329 329 328 328 330 331 330 329 327 326 327 329 330 330 329 329 331 332 332 332 332 333 332 332 332 332 332 332 331 330 331 330 328 329 328 327 327 327 327 328 328 327 328 328 329 329 329 330 329 326 324 326 327 327 329 328 327 329 330 329 330
333 330 328 327 329 331 331 331 330 328 326 327 330 332 331 331 330 331 331 332 332 332 332 332 332 332 333 332 332 331 330 331 330 328 329 328 326 326 327 328 328 328 327 328 328 328 328 329 329 329 328 326 325 324 324 326 326 326 328 328 328 328
334 330 327 327 329 331 331 331 330 328 327 327 331 333 332 332 331 332 332 331 331 332 332 332 332 332 333 333 332 331 331 332 331 329 330 328 326 326 327 328 328 328 327 327 328 328 328 328 328 329 330 328 327 326 324 324 325 325 326 326 326 326
333 329 326 327 329 331 332 332 331 330 329 329 331 333 334 333 333 333 333 333 332 332 332 332 332 333 333 333 332 332 332 332 332 331 329 328 327 327 328 328 327 327 327 327 328 328 328 327 328 329 329 329 329 326 324 324 324 323 324 325 325 325
332 328 327 328 330 332 333 333 333 333 332 331 332 334 335 334 333 333 334 334 333 333 333 333 333 333 333 333 331 332 332 332 332 331 328 327 327 328 328 327 327 327 327 328 328 328 328 328 328 328 327 328 328 327 326 326 325 324 325 326 325 325
333 330 329 331 333 334 335 335 335 335 335 334 335 336 335 333 333 334 334 334 333 333 333 333 333 333 333 332 332 332 332 332 332 330 328 327 328 328 327 327 327 327 327 328 329 329 328 328 328 327 327 327 327 327 327 328 328 327 327 327 327 327
334 332 331 333 334 334 335 336 336 336 335 336 336 336 334 334 334 334 334 333 333 333 333 333 333 332 332 332 332 332 332 332 332 331 328 327 328 329 327 327 327 328 328 329 329 329 328 328 328 327 327 326 326 326 327 327 327 328 328 328 328 328
334 333 333 333 334 334 335 336 335 335 335 336 336 335 334 335 335 333 333 333 333 333 333 333 333 332 332 332 332 331 332 332 332 332 330 327 328 329 328 327 327 328 328 329 329 328 328 328 327 326 325 325 325 325 325 325 326 327 327 328 328 328
334 334 335 334 335 335 335 335 335 335 335 335 335 335 335 335 334 333 333 333 332 332 333 333 333 333 333 332 332 331 331 331 331 332 331 328 328 329 329 327 327 328 329 329 329 328 328 327 327 326 326 327 326 325 325 323 324 326 327 327 328 328
334 335 335 335 336 335 336 335 335 334 335 335 334 335 336 335 334 333 333 332 332 332 332 333 333 333 333 333 332 332 331 331 331 332 331 329 328 328 329 328 327 328 328 329 329 328 328 327 328 327 326 326 323 324 328 323 320 324 326 327 327 327
335 335 336 336 336 336 336 336 336 335 335 335 335 336 336 334 333 333 332 332 332 332 333 333 333 333 332 332 332 332 331 331 331 332 331 330 329 327 328 328 327 327 328 329 328 328 328 328 328 327 326 326 324 327 328 322 319 322 324 326 326 326
335 335 335 336 336 336 336 336 336 335 335 335 335 335 334 332 332 332 332 332 333 333 333 332 332 332 332 332 332 331 330 330 331 331 331 331 330 328 327 328 328 327 328 328 328 329 329 328 327 326 325 326 327 327 326 322 322 322 322 324 326 326
335 335 335 336 336 337 336 336 336 335 335 335 334 333 332 331 331 332 332 332 332 332 333 332 332 331 332 331 332 331 331 331 331 331 331 331 331 329 328 328 328 327 327 328 328 329 328 328 327 327 326 326 326 326 324 322 322 322 322 323 324 325
335 334 335 336 337 336 336 336 336 336 335 334 332 331 331 330 331 331 332 332 332 332 332 332 332 331 331 331 331 331 331 331 331 330 331 331 331 331 329 328 328 327 327 327 328 328 328 328 327 327 327 327 326 325 324 322 321 322 322 322 322 323
335 334 334 335 336 336 336 336 336 336 334 333 331 330 330 330 331 331 331 331 332 332 332 331 331 331 330 330 330 330 331 330 330 330 330 330 330 331 329 328 328 327 327 327 327 328 328 328 328 327 327 327 325 323 322 321 321 322 321 321 322 322
334 334 334 335 337 337 336 336 336 335 332 331 331 330 330 331 330 330 330 331 331 331 330 330 329 329 329 329 329 329 329 329 329 329 329 329 330 329 328 328 328 328 327 327 327 327 328 328 328 327 327 326 324 322 320 319 320 321 320 320 321 321
334 334 334 336 337 337 336 335 335 333 331 331 331 330 331 331 330 329 328 329 329 329 328 327 327 327 327 326 326 326 327 327 328 328 329 329 328 328 328 328 328 328 328 327 327 327 327 327 328 327 327 327 325 323 322 320 320 321 320 319 320 321
333 333 335 336 337 337 335 334 333 331 330 330 330 329 330 330 329 327 325 326 327 326 326 326 325 326 325 325 324 324 324 325 326 327 328 328 327 327 328 328 328 328 328 327 327 327 327 327 327 328 327 327 326 324 323 321 321 322 321 321 321 320
333 333 334 335 336 336 333 332 331 331 331 330 328 328 329 329 328 326 324 324 324 324 324 324 324 324 324 324 324 323 323 323 324 325 326 327 326 327 328 328 328 328 328 327 327 327 327 327 326 327 328 327 326 324 322 321 321 321 322 322 321 319
332 332 333 334 334 333 331 330 330 331 331 329 327 328 328 327 327 326 325 324 325 324 323 323 322 323 323 324 324 323 322 323 323 324 325 326 326 326 327 327 328 328 327 326 326 326 326 326 326 326 328 327 326 324 323 321 320 321 322 321 321 320
331 330 331 331 331 330 330 329 330 331 331 328 327 327 327 326 326 325 325 325 325 324 323 323 323 323 323 324 323 323 323 323 323 324 325 326 325 326 326 326 327 327 327 326 326 326 326 326 326 326 327 327 326 325 322 320 320 320 321 321 321 321
330 329 329 329 329 329 329 328 329 330 329 328 327 327 327 325 325 325 324 324 324 324 324 324 324 323 324 324 323 322 323 323 323 324 325 325 326 326 326 326 327 327 326 326 326 326 326 326 326 327 327 327 327 325 322 320 319 319 320 321 320 320
328 328 328 328 328 328 327 327 327 329 328 327 327 327 326 325 324 324 324 324 324 324 324 323 323 323 323 323 323 323 323 322 323 323 323 325 327 327 327 327 327 326 326 326 326 326 326 326 326 326 326 326 327 326 323 320 319 319 319 320 319 319
Wind_Speed
27 25 24 23 22 22 21 19 18 18 18 17 17 17 16 16 16 16 16 16 15 15 15 14 14 13 12 12 12 12 11 9 9 8 8 9 10 10 11 13 13 12 11 11 13 13 13 12 12 15 16 14 12 12 12 12 13 12 12 12 13 14
27 25 24 23 23 22 21 19 18 18 18 17 17 17 16 16 16 16 16 16 16 15 15 14 13 13 13 13 12 12 11 10 9 9 9 9 9 9 10 11 12 11 10 11 12 12 12 12 13 15 16 15 12 12 11 12 12 12 12 12 13 13
26 25 24 24 23 22 21 20 19 18 18 18 17 18 17 16 17 17 16 16 16 15 14 13 12 13 13 13 13 12 12 11 10 9 9 9 9 9 9 10 11 10 10 11 12 12 11 12 15 15 16 14 13 12 11 11 11 12 12 12 13 12
24 25 25 24 24 22 21 21 20 19 19 18 17 17 17 16 16 16 16 16 15 15 14 13 13 13 13 13 13 13 12 10 9 9 8 8 8 9 9 10 10 10 10 10 12 12 11 12 15 16 15 14 12 11 11 11 11 12 12 13 12 12
24 25 25 25 24 22 22 21 21 21 20 18 17 17 17 16 15 15 15 16 15 15 14 13 13 13 13 12 12 12 11 10 9 8 8 8 9 10 10 10 10 10 10 10 11 11 10 12 15 15 15 14 12 11 10 10 11 12 12 13 12 11
25 25 26 26 25 23 22 22 21 21 19 18 17 17 17 15 15 15 16 16 16 15 14 13 12 12 12 11 11 11 10 9 8 8 8 9 10 11 11 11 10 10 9 9 10 11 10 12 15 16 15 13 12 10 10 10 11 12 12 12 10 10
27 27 27 27 25 22 23 22 21 20 18 17 17 17 17 16 15 15 16 16 15 15 13 12 11 11 11 11 11 11 10 9 8 9 9 9 10 10 11 11 10 9 9 10 11 11 11 13 15 16 15 13 12 10 10 11 11 12 12 11 9 9
28 28 27 26 24 23 23 22 20 19 17 17 17 17 17 16 16 16 15 15 14 13 12 11 10 10 10 10 10 10 10 9 8 9 9 9 9 9 10 9 8 8 8 11 12 11 12 13 14 15 14 13 11 10 10 11 11 12 11 10 8 8
29 30 28 27 26 25 24 22 20 18 17 16 17 17 17 16 15 15 15 13 11 11 11 10 10 10 9 10 9 9 8 8 7 7 7 8 8 8 8 7 7 7 8 11 12 12 12 13 14 14 13 13 11 10 10 10 11 11 10 9 8 7
27 28 29 28 27 25 24 22 20 18 17 16 17 17 16 16 15 15 14 11 10 9 8 9 10 9 9 9 8 8 7 6 6 6 6 6 7 7 7 7 6 7 9 10 12 12 12 13 14 13 13 12 11 10 10 10 11 10 10 9 8 7
23 24 26 27 25 24 23 21 19 17 16 16 17 16 16 15 15 14 12 10 9 7 6 6 7 8 9 8 6 6 6 5 5 6 6 6 6 6 8 8 7 7 8 9 11 11 11 12 13 13 13 12 11 11 10 11 11 10 10 9 8 8
20 22 24 25 24 23 22 20 18 17 16 16 16 16 16 15 14 14 12 10 8 7 6 5 5 6 6 6 5 5 4 4 5 6 6 5 5 6 8 9 8 7 7 9 11 11 10 11 13 13 13 12 11 11 11 11 12 12 11 10 9 8
24 23 24 24 23 22 21 19 18 17 16 15 15 15 15 14 14 13 11 9 8 7 6 5 5 4 4 4 4 4 4 4 5 7 6 5 5 7 9 10 10 9 8 9 11 12 10 10 12 13 13 12 12 12 12 11 11 12 11 10 9 8
29 28 27 25 23 21 19 18 17 16 15 15 15 14 14 13 13 12 10 9 7 7 6 6 6 5 5 4 4 5 5 5 6 7 7 6 6 8 9 10 11 11 10 9 10 11 10 11 13 14 14 13 12 12 11 10 11 10 10 9 8 7
32 31 29 26 23 21 19 18 17 16 15 15 14 13 13 13 13 11 10 9 8 8 8 7 7 6 6 6 6 6 6 7 7 7 8 7 7 8 9 10 12 12 11 9 9 10 10 11 13 14 13 12 12 12 10 10 11 10 8 8 7 6
33 32 30 26 23 21 19 17 17 16 15 15 14 13 12 12 11 11 10 10 9 9 9 9 9 8 8 7 7 7 8 8 7 8 8 7 7 7 9 11 11 11 11 10 10 11 10 10 12 13 12 11 11 10 10 10 9 10 8 7 7 6
34 33 29 26 23 20 19 17 16 15 15 15 13 12 11 11 11 10 10 10 10 10 10 10 10 9 8 8 8 8 9 8 8 8 7 8 8 8 9 11 12 11 9 10 11 11 11 11 12 12 11 11 10 10 11 10 8 9 8 7 7 7
34 32 28 25 23 20 18 17 16 15 14 13 13 11 10 11 11 10 10 10 11 10 11 10 10 9 9 8 8 10 10 10 10 8 8 9 9 10 10 11 13 11 9 10 11 11 13 13 13 13 11 10 10 10 10 9 8 8 8 7 6 6
32 30 27 25 23 21 18 17 15 14 13 13 12 11 11 12 11 10 10 10 10 9 10 10 10 10 10 9 9 11 11 11 11 9 9 11 11 12 11 11 12 12 10 10 10 13 15 16 15 14 13 11 10 9 8 7 7 7 6 6 6 5
28 28 26 25 23 22 19 17 16 14 13 13 12 11 11 11 10 9 10 9 8 8 9 9 8 10 11 11 11 11 11 11 11 10 10 13 13 12 12 11 12 12 13 12 13 15 17 18 18 17 15 14 11 9 7 6 6 6 4 3 4 5
26 28 27 26 24 23 21 19 17 15 14 13 13 12 12 11 10 9 8 8 8 7 8 7 7 8 11 12 11 11 12 12 12 11 11 13 14 13 11 11 12 13 14 15 17 16 18 20 19 17 15 15 14 12 10 8 7 6 4 2 3 3
25 28 28 27 26 24 23 21 19 17 16 14 13 12 12 11 9 8 8 8 8 6 7 6 6 7 9 12 12 12 13 12 13 12 11 12 13 14 12 12 14 15 15 16 17 18 19 16 13 14 14 13 12 13 12 11 10 9 7 5 4 5
25 27 27 27 26 25 22 21 19 18 17 15 13 12 10 9 8 8 9 9 8 7 8 8 8 8 9 12 12 12 13 12 13 13 13 13 14 14 13 13 15 16 16 17 17 19 16 11 13 16 13 8 4 5 8 10 12 12 10 8 6 7
26 26 27 26 25 23 21 19 18 17 16 14 12 11 10 10 10 9 9 9 9 9 9 9 9 9 9 11 11 12 13 12 12 12 12 12 14 15 14 15 16 17 18 18 18 17 11 11 18 16 8 4 2 3 2 5 11 13 10 9 8 8
26 26 26 25 24 23 21 20 17 15 15 13 11 12 12 12 11 10 9 9 10 9 9 9 9 9 9 10 11 11 12 12 12 12 12 11 12 14 14 15 17 18 19 18 19 17 11 12 16 12 8 6 3 2 1 4 8 9 9 11 9 9
26 25 26 26 24 23 22 21 20 18 17 15 13 14 15 14 12 11 9 9 10 10 9 9 9 9 9 9 10 10 11 11 11 12 12 11 11 13 14 15 17 18 19 18 19 18 14 14 14 9 8 7 3 3 8 8 4 4 7 11 10 9
25 25 25 26 25 24 23 22 22 20 19 17 16 16 15 13 12 10 9 9 10 10 8 8 8 8 9 8 8 9 10 10 10 11 11 11 11 11 13 15 16 17 18 18 20 20 17 16 15 9 7 6 1 8 17 13 5 4 4 6 8 9
24 24 25 25 25 24 23 22 22 20 18 18 17 17 15 13 12 10 9 9 10 10 8 8 8 8 8 8 8 9 10 9 9 9 10 11 11 10 12 15 16 16 17 17 18 19 19 18 17 12 9 5 1 11 19 12 11 13 6 3 5 6
24 24 24 24 24 22 22 22 21 19 18 17 17 17 15 14 13 11 11 11 11 11 10 9 9 9 8 8 8 9 10 9 8 9 9 10 10 9 12 15 16 15 15 15 14 15 16 17 18 14 10 7 6 14 15 9 14 16 10 6 4 3
23 23 23 23 23 21 21 21 21 19 19 19 17 16 15 15 14 13 12 13 13 12 12 11 10 10 9 9 9 9 9 8 8 8 9 10 10 10 12 14 14 14 14 13 12 12 12 14 16 14 10 8 9 14 13 8 12 15 11 7 4 5
21 22 22 22 22 21 20 20 19 19 20 20 18 17 17 17 16 15 14 14 14 14 13 12 12 11 10 10 10 9 8 7 8 9 9 10 10 11 12 12 12 12 13 13 12 11 10 11 14 13 10 8 10 14 15 12 14 16 13 10 7 6
20 20 22 22 22 20 19 19 18 19 21 19 17 18 19 20 18 17 17 16 16 15 14 13 11 10 10 10 9 7 6 6 7 8 9 9 10 10 11 11 11 11 11 11 11 12 12 11 13 14 12 9 10 15 16 14 17 18 16 18 17 9
20 20 21 21 21 19 19 19 20 21 20 19 18 20 22 21 19 19 18 18 17 16 14 13 11 10 10 9 7 5 4 4 4 7 9 9 10 10 10 10 11 11 10 10 10 11 12 12 13 15 15 12 11 16 15 12 16 17 16 22 23 14
20 20 20 20 20 19 19 20 20 20 19 19 20 22 22 20 19 19 19 18 17 16 15 13 12 11 9 8 6 4 4 4 3 7 10 9 8 9 9 9 10 10 9 8 9 10 11 12 12 14 16 13 12 16 15 11 15 17 17 22 24 19
21 20 19 20 20 19 19 19 20 19 19 20 22 22 20 18 19 19 18 17 16 16 15 13 12 11 10 9 6 4 5 4 4 6 9 8 7 7 7 8 9 9 9 8 8 9 9 10 12 13 16 15 12 14 14 12 15 17 18 20 22 24
22 20 19 20 20 19 19 19 19 20 21 22 23 22 20 19 19 19 18 17 16 15 14 13 13 12 11 9 7 5 4 4 4 5 7 7 7 7 7 7 8 9 9 9 8 8 8 9 11 12 14 15 13 12 12 12 15 16 17 19 21 24
19 19 19 20 21 20 19 19 20 22 24 25 25 23 21 21 20 18 17 16 16 16 14 12 11 10 10 9 7 6 4 3 4 4 4 5 5 6 7 8 9 9 9 9 8 8 8 9 11 11 12 14 13 12 10 11 15 16 17 19 21 22
Wind_Direction
163 162 161 158 158 157 153 153 151 149 148 148 148 146 145 146 149 150 150 149 145 141 138 137 137 135 137 140 137 135 134 132 130 127 126 126 129 133 140 145 144 141 135 127 125 122 120 123 133 143 147 147 145 134 120 113 113 116 119 114 105 102
162 163 162 160 159 155 154 154 149 148 147 145 145 144 145 146 147 147 149 151 149 145 143 143 140 136 137 136 133 128 124 123 121 119 119 119 124 132 135 137 137 137 133 126 124 122 122 130 139 148 151 151 146 134 122 116 115 118 121 116 109 107
163 164 164 162 158 155 157 155 150 149 147 146 148 148 148 150 150 149 149 149 148 146 145 143 137 134 134 131 126 122 120 120 120 118 118 118 120 129 131 128 130 132 128 124 125 125 126 136 147 154 155 153 146 135 125 120 118 119 122 119 116 113
163 165 164 162 158 159 160 156 153 152 150 151 153 152 151 154 154 150 150 149 147 147 145 142 138 137 135 130 125 123 124 124 123 118 117 119 119 123 127 127 125 126 125 123 127 127 126 136 148 154 154 153 146 136 129 124 123 122 123 122 120 117
163 166 165 161 160 162 162 158 157 155 154 156 156 153 153 155 154 152 152 150 149 148 147 144 143 143 139 133 129 127 128 128 124 120 119 117 116 119 123 123 121 120 118 119 126 126 122 129 143 150 153 152 146 138 133 132 130 126 124 122 119 118
165 168 166 163 163 164 164 162 160 159 158 158 158 155 154 155 155 154 153 152 152 150 149 146 145 145 140 135 133 131 131 131 128 125 124 118 115 118 118 116 116 116 112 116 124 123 117 125 139 147 151 151 146 142 141 140 136 130 126 125 120 115
169 171 169 167 165 163 166 165 162 162 161 158 159 157 155 158 158 156 154 155 156 153 149 145 146 147 142 139 136 136 136 135 135 130 125 120 116 116 114 113 114 114 110 115 122 121 118 125 139 146 149 151 147 147 147 145 140 134 131 132 125 119
173 174 170 168 166 167 170 168 165 165 161 159 161 159 157 161 161 159 159 159 157 152 150 146 146 146 141 138 136 137 138 138 137 129 123 119 118 116 116 117 116 112 109 115 122 125 124 127 139 146 148 150 150 152 152 148 142 137 138 140 135 131
177 176 173 171 171 172 172 170 170 167 161 162 163 162 162 165 165 164 163 159 157 154 151 147 147 148 143 138 137 138 139 139 135 126 120 119 121 121 122 124 119 110 110 118 124 130 132 131 137 145 148 150 151 155 155 151 145 141 145 146 143 133
181 179 175 174 174 173 173 173 173 168 164 166 166 166 167 167 170 169 163 158 160 161 153 148 150 152 148 142 144 147 145 141 135 124 119 123 125 124 130 135 127 116 114 121 127 134 140 137 138 146 151 150 152 159 160 154 148 146 149 148 142 123
184 181 177 174 175 175 177 176 172 167 169 170 168 171 172 171 174 171 163 160 164 167 162 156 157 156 150 148 151 157 155 146 138 128 120 126 133 130 136 140 134 126 122 127 132 137 144 143 145 151 154 154 157 162 161 155 149 146 146 143 137 120
187 186 183 178 177 180 180 175 170 169 171 173 172 175 175 176 178 173 168 167 166 171 173 172 173 165 152 150 154 158 161 153 146 141 129 130 142 134 136 142 140 137 134 136 137 141 149 150 150 153 156 157 162 165 161 155 148 142 140 139 136 123
191 189 192 186 181 182 181 175 172 172 172 175 177 179 179 181 181 177 175 175 177 181 184 189 191 183 164 158 166 166 169 165 155 153 144 140 149 140 137 143 145 146 143 140 136 140 153 157 151 152 157 160 163 163 156 152 150 144 140 138 138 130
190 191 195 190 184 183 182 177 175 174 174 178 179 180 182 186 187 184 184 187 193 197 197 200 200 198 186 185 198 189 184 177 163 159 152 149 153 146 143 145 147 148 147 144 137 139 152 154 150 152 158 160 157 153 148 152 153 146 144 142 142 142
189 193 194 190 186 184 185 181 178 178 176 179 180 182 186 190 191 191 197 204 208 209 207 206 204 204 202 203 205 200 193 182 170 162 153 150 155 151 148 148 148 148 148 152 145 142 150 152 151 154 158 156 147 141 143 157 156 148 153 152 148 150
187 192 190 188 187 184 186 184 182 182 178 180 181 183 187 188 191 197 207 211 214 212 206 207 208 210 213 211 205 202 197 186 175 165 157 152 153 155 155 153 154 152 152 157 153 147 150 152 151 152 155 155 151 142 143 156 154 144 152 154 150 150
186 189 188 186 186 184 186 186 185 184 180 181 182 184 186 187 193 201 206 209 213 211 205 206 209 214 217 213 208 204 199 192 180 170 164 158 152 157 160 157 156 157 159 159 153 146 142 145 145 145 151 157 157 147 143 150 145 140 144 142 143 145
184 185 186 186 186 184 184 185 187 188 185 183 184 186 190 195 199 202 207 211 213 209 207 207 207 213 212 210 210 207 207 200 187 176 169 161 154 158 163 161 157 159 167 159 149 144 138 137 137 134 138 146 150 147 145 145 139 139 137 130 135 139
181 181 185 186 185 183 182 184 187 189 190 188 189 193 196 196 198 206 216 218 215 211 213 211 208 212 209 204 201 205 213 203 188 180 170 162 156 160 167 168 162 157 158 149 142 142 137 135 130 125 123 125 133 143 147 148 146 146 139 136 140 141
180 180 183 183 182 181 180 182 186 188 190 193 196 197 195 192 196 211 221 223 219 216 217 214 213 214 207 200 195 202 210 197 184 180 175 166 159 162 168 169 166 157 151 141 136 139 140 137 126 112 107 107 112 119 122 126 136 145 149 163 162 162
181 182 183 182 181 181 179 178 180 184 188 193 197 196 192 191 197 207 215 222 220 216 217 214 213 208 198 194 191 197 204 196 187 183 179 171 162 161 167 172 166 158 153 144 136 138 141 137 122 107 100 93 92 93 93 96 101 107 116 138 152 151
183 185 186 185 183 183 183 182 182 184 187 192 196 196 193 192 195 200 205 213 215 214 217 214 209 196 183 182 182 188 196 196 191 186 178 172 168 164 167 178 171 159 156 149 141 141 143 136 121 116 113 96 84 85 84 83 85 83 82 91 104 97
184 185 186 187 185 183 185 189 189 189 190 193 194 193 194 194 195 198 199 203 205 205 206 207 206 197 182 179 182 186 189 193 195 190 179 170 172 171 168 180 179 167 159 149 144 148 148 143 133 125 115 102 88 85 75 69 74 76 78 82 88 92
186 185 185 185 185 184 185 188 191 193 194 195 191 188 191 198 199 198 197 197 197 197 198 199 201 195 186 183 185 188 187 190 194 191 181 174 176 176 174 180 184 177 166 155 152 155 154 151 145 136 114 92 107 111 81 74 73 68 78 88 83 90
186 184 185 184 184 185 183 183 183 184 186 187 185 188 193 198 198 196 197 196 194 196 198 196 194 188 183 184 185 188 189 189 190 188 187 183 179 178 181 185 187 185 178 169 164 163 160 158 157 151 135 124 117 107 172 142 98 64 71 88 89 94
184 184 185 184 185 186 185 185 182 176 175 176 178 188 194 194 194 197 199 196 193 194 195 190 187 181 178 182 181 183 187 188 191 190 191 190 184 181 183 188 192 191 189 184 175 169 165 167 169 162 148 145 140 164 165 153 121 58 71 83 92 101
183 184 185 185 186 187 187 188 187 182 181 181 180 184 190 189 193 202 201 195 190 186 183 180 177 174 174 178 177 177 180 183 188 191 193 196 193 188 186 189 194 196 195 192 184 176 171 173 175 176 173 167 131 162 162 154 146 143 99 76 92 105
182 184 186 186 186 187 189 188 187 186 186 187 185 181 182 186 193 199 194 186 182 174 168 167 170 168 166 168 171 171 172 175 182 189 196 201 199 197 193 192 195 199 200 197 194 187 180 179 180 181 182 183 146 163 164 160 155 145 123 97 102 98
180 183 186 186 185 187 191 190 188 187 185 185 185 181 180 186 188 186 179 172 169 164 161 162 164 162 156 155 158 161 164 167 174 182 191 197 199 199 195 193 194 199 202 202 203 201 192 189 189 187 184 175 145 155 161 156 151 141 124 134 142 126
180 182 185 186 185 187 190 190 188 188 185 181 181 179 179 180 178 174 168 162 159 159 158 158 154 150 147 145 148 153 158 164 167 172 180 186 191 194 191 192 195 198 204 206 208 210 206 203 199 194 191 183 159 155 154 144 147 142 125 121 127 148
180 183 185 186 186 187 188 189 189 189 184 179 178 178 176 176 174 169 163 156 155 156 153 151 147 145 145 144 146 148 153 163 171 173 178 182 185 187 186 189 195 200 204 208 213 216 218 216 207 201 201 203 195 183 176 171 165 156 141 130 129 138
179 183 186 186 187 187 187 189 190 188 184 180 181 180 177 176 174 167 161 156 155 155 153 151 149 149 150 149 147 145 151 165 177 180 179 178 177 178 183 187 191 196 199 206 213 216 218 218 214 210 207 211 220 206 193 186 176 169 162 152 144 136
179 184 186 186 187 188 188 189 188 187 185 183 184 183 179 176 173 169 163 159 159 159 159 159 158 158 157 155 153 153 161 167 178 183 176 171 170 173 178 184 189 191 193 200 206 211 215 215 213 213 210 209 215 208 201 193 183 178 169 155 144 136
178 181 184 183 185 185 186 187 187 189 187 184 185 183 179 177 176 175 171 167 167 167 166 165 164 165 163 163 165 168 176 174 177 182 176 168 168 173 178 182 188 190 189 196 202 205 210 212 209 209 208 209 210 207 207 201 189 183 172 160 151 145
176 177 177 177 180 182 183 184 187 192 190 186 186 183 181 182 182 181 179 177 176 174 171 168 166 169 170 172 175 177 182 180 175 178 179 179 179 183 187 186 187 190 190 192 196 196 198 201 201 202 206 210 211 210 209 202 194 190 182 174 167 159
174 171 169 171 175 179 181 182 188 193 190 188 188 184 184 187 187 186 184 181 177 174 170 165 165 169 171 172 170 173 181 176 173 176 180 186 190 195 200 195 191 191 192 192 193 193 192 191 192 195 204 211 214 210 206 201 198 195 188 184 180 173
164 161 163 169 172 175 180 183 188 191 190 189 190 188 187 188 189 187 184 180 173 169 166 163 165 168 169 167 163 168 182 186 180 178 182 187 186 190 195 194 193 194 195 196 194 191 191 190 190 196 204 208 212 210 203 202 201 196 190 188 186 183